Location: Berkeley
(37.8716°N, 122.2727°W)
Time: 10:22:37
(UTC-07:00)

Envisat - Pass Details

Date: 21 April 2024
Orbit: 762 x 764 km, 98.3° (Epoch: 29 May)

Event Time Altitude Azimuth Distance (km) Brightness Sun altitude
Rises 03:04:07 0° 37° (NE) 3,232 7.3 -33.1°
Reaches altitude 10° 03:08:02 10° 68° (ENE) 2,300 6.1 -32.6°
Maximum altitude 03:09:57 12° 90° (E) 2,155 5.7 -32.4°
Drops below altitude 10° 03:11:53 10° 113° (ESE) 2,293 5.6 -32.2°
Enters shadow 03:12:02 10° 114° (ESE) 2,315 5.6 -32.2°
